Wetbulb
53.70 54.98 55.56 55.83 55.52 55.22 55.20 55.78 60.64 62.16 64.51 63.92 63.55 63.43 64.63 64.46 64.70 65.75 66.37 66.17 65.57 65.44 65.17 63.14 62.18 62.06 61.98 61.51 60.75 59.61 58.71 58.82 60.22 58.25 55.46 56.28 57.93 58.81 59.87 60.03 59.80 60.41 61.09
52.28 53.71 54.78 55.37 54.90 55.87 55.45 55.37 58.98 62.18 64.24 65.14 65.28 63.78 65.12 63.00 63.13 64.66 65.74 66.06 65.94 65.70 63.95 62.72 61.91 61.83 60.96 60.25 59.23 58.47 56.83 57.39 58.05 54.52 53.28 51.64 54.14 57.48 59.44 60.09 59.57 59.48 60.51
51.07 52.56 53.39 53.39 54.46 53.92 54.66 55.54 58.66 63.34 64.00 63.85 63.66 62.31 62.08 62.21 61.04 62.57 63.45 64.26 64.75 64.51 63.68 62.81 62.05 61.20 60.50 59.29 58.23 57.63 57.09 55.92 54.94 55.19 53.67 50.00 49.05 54.02 57.67 59.39 60.21 59.28 57.88
50.65 51.40 52.63 52.28 51.53 53.85 53.65 56.23 60.07 63.69 64.48 64.60 63.62 63.25 61.51 61.49 60.18 62.88 61.59 62.20 63.90 63.64 63.35 62.44 61.52 60.83 59.63 58.47 57.95 58.57 57.19 55.90 54.28 54.46 56.14 54.37 53.90 52.15 51.67 56.58 58.74 59.72 57.87
50.46 49.99 51.49 51.29 51.49 53.47 60.21 62.80 64.49 64.94 65.13 64.21 63.89 62.18 60.33 59.79 60.65 61.52 60.86 62.40 61.33 62.65 62.69 62.60 61.75 59.64 58.75 58.30 58.28 58.13 57.05 56.66 55.48 54.14 53.48 53.66 54.28 55.76 54.16 52.34 54.14 57.75 57.05
49.41 51.19 57.68 59.49 60.15 64.25 64.45 64.84 65.01 64.26 64.32 63.97 62.42 62.08 60.33 60.42 60.39 60.27 59.65 59.50 59.33 60.88 62.51 61.26 59.97 59.12 58.34 58.62 58.70 58.22 57.60 57.03 55.84 54.78 54.28 54.18 53.20 54.36 55.36 53.53 51.70 53.35 55.32
52.52 56.58 55.73 59.47 62.40 63.50 63.68 64.58 64.37 61.95 61.76 61.71 61.27 61.12 60.66 60.71 60.33 59.97 59.75 58.96 59.21 58.38 58.06 59.01 58.20 57.80 58.69 58.71 58.74 58.40 57.60 56.85 56.40 55.98 54.88 55.06 54.61 56.44 57.18 54.00 51.44 51.94 57.25
56.47 57.64 59.15 60.72 62.21 62.23 62.80 63.04 61.87 60.77 60.65 61.00 59.79 59.54 59.78 60.15 60.45 60.21 59.60 58.97 58.63 58.20 58.19 58.36 58.43 58.86 59.29 59.84 59.40 58.97 58.57 57.44 57.39 56.52 55.68 55.32 55.72 56.77 57.22 56.27 53.26 54.29 56.56
56.82 59.52 60.72 60.80 60.95 60.75 60.79 60.97 60.50 59.69 59.49 59.21 59.45 59.17 59.56 59.60 59.60 58.71 58.51 58.51 58.06 58.52 58.12 58.48 58.30 58.71 59.75 59.80 59.33 58.99 58.34 58.35 57.50 57.68 56.21 55.22 55.76 57.49 57.41 55.92 55.47 54.48 52.61
58.39 60.06 60.30 60.13 59.67 60.16 59.86 60.74 60.66 59.50 59.38 59.81 60.12 59.75 58.98 59.12 58.88 58.76 58.42 58.13 57.92 57.87 58.45 57.91 57.99 58.81 59.80 60.32 59.11 58.62 57.70 57.74 57.69 58.49 58.29 56.36 56.30 56.36 56.95 56.58 56.08 55.60 53.86
59.22 59.80 59.52 59.91 60.04 59.48 60.03 60.17 60.11 59.65 59.58 59.85 59.67 59.23 58.87 58.89 58.73 58.26 57.78 57.17 57.11 57.47 58.23 58.63 58.06 58.93 59.07 59.87 58.41 58.66 58.21 58.91 57.80 58.38 59.06 58.56 58.09 57.21 57.29 57.45 56.24 55.62 55.00
59.29 59.45 59.86 59.68 59.88 59.10 59.85 59.92 59.75 59.48 59.59 59.49 59.04 58.31 58.29 58.37 57.92 57.79 57.40 57.60 57.61 57.87 58.42 58.48 58.45 59.74 59.92 59.62 59.04 59.56 59.95 58.91 59.04 58.35 58.88 59.01 59.41 56.91 56.62 56.20 56.56 56.38 55.94
58.60 59.20 59.43 59.55 59.28 59.02 59.45 59.70 59.63 58.91 59.17 59.58 58.95 58.38 58.27 57.91 57.37 57.03 57.18 57.38 56.82 56.80 56.94 57.73 59.95 60.28 59.93 59.56 60.47 60.35 59.33 58.60 58.60 58.49 58.93 59.60 58.23 58.13 59.26 59.10 57.61 56.99 57.96
58.83 59.06 58.89 59.24 59.26 59.49 59.47 59.78 58.93 59.34 59.37 59.79 58.90 58.82 58.36 59.01 57.53 57.66 57.01 56.61 57.63 56.86 57.23 60.83 60.95 60.76 60.63 61.15 62.17 61.43 60.43 58.42 58.67 59.30 60.28 59.75 59.86 58.94 58.75 58.11 57.96 57.77 57.48
58.19 58.73 58.72 59.03 58.97 58.30 58.95 59.03 59.10 59.54 59.36 59.64 59.08 59.14 59.46 59.93 58.10 57.93 57.61 57.07 57.38 57.05 61.16 60.77 58.92 58.47 58.55 57.57 59.85 59.72 59.24 58.57 58.69 59.96 60.26 59.70 59.94 58.94 57.62 57.55 57.80 57.64 57.31
58.29 58.80 59.17 59.43 58.88 58.79 58.77 58.86 58.47 58.98 60.21 60.43 59.45 59.77 60.24 59.33 58.73 57.78 56.94 57.28 56.83 59.54 61.24 59.27 57.80 56.60 57.06 48.41 49.31 57.69 59.97 60.86 59.86 59.17 59.44 58.91 56.96 55.27 53.85 54.41 54.74 56.77 57.26
58.16 58.56 59.20 59.20 59.12 59.26 58.96 57.15 57.28 59.01 60.89 60.84 60.56 61.54 59.91 59.18 59.95 58.67 57.70 57.21 57.94 59.57 59.89 56.80 56.04 55.01 54.83 46.05 49.69 52.41 60.16 59.76 59.83 59.72 59.13 58.81 57.62 56.70 56.12 52.30 52.29 51.88 52.29
58.44 58.94 59.32 59.34 59.06 58.10 56.81 56.65 56.72 59.17 61.20 60.78 60.15 60.55 59.71 59.07 60.19 59.84 56.79 56.66 59.86 59.80 57.89 55.07 54.58 54.56 54.52 45.33 49.51 52.96 58.77 60.20 59.91 59.69 59.26 58.36 57.99 57.37 57.88 57.60 57.58 57.80 57.85
58.67 59.41 60.30 59.70 58.18 56.62 56.26 56.18 57.14 58.77 59.52 59.12 59.31 60.17 59.08 57.39 58.12 57.07 56.78 56.54 56.54 56.33 55.21 54.91 54.18 55.17 56.02 44.78 49.69 56.87 60.06 60.17 59.39 59.55 60.07 59.49 58.21 48.37 49.74 58.04 56.70 56.55 55.60
58.49 59.49 60.09 59.14 57.23 56.39 55.00 55.84 56.82 57.51 58.07 59.11 59.85 59.90 58.60 58.09 57.86 56.80 56.86 56.36 56.38 56.48 57.19 55.51 55.09 52.59 56.10 44.98 47.34 55.68 60.67 59.38 58.81 58.41 57.32 50.69 54.71 46.25 48.31 57.84 57.07 55.66 55.54
58.24 59.33 59.42 57.58 57.51 55.07 55.58 54.95 56.31 56.95 58.76 59.80 59.78 59.23 58.48 57.75 57.73 57.12 56.88 57.18 57.46 57.57 56.83 55.53 54.91 56.09 55.02 52.60 46.43 49.33 59.25 59.90 58.33 57.77 56.91 53.93 44.80 45.89 46.96 51.29 57.61 55.63 55.36
58.36 59.50 58.36 57.12 54.76 55.93 56.03 54.05 56.11 57.56 58.40 58.64 58.81 58.50 57.74 59.65 58.74 57.55 57.34 57.56 57.09 56.38 55.22 54.36 54.37 55.96 54.96 47.52 45.71 46.25 50.24 53.48 59.01 57.98 57.20 51.65 43.35 44.80 45.16 51.82 44.62 46.31 50.95
58.88 59.01 58.19 54.73 55.02 55.39 56.26 54.02 55.18 56.28 57.32 58.01 57.78 57.77 58.88 58.69 58.35 57.32 57.16 56.40 55.80 55.82 54.81 54.74 55.74 55.40 54.81 54.88 44.98 43.35 44.62 48.43 57.25 57.74 52.40 43.17 41.54 42.44 44.76 44.07 44.62 49.32 56.03
57.23 57.28 56.07 55.57 54.10 53.59 54.49 55.94 54.09 56.94 57.93 57.38 57.24 57.87 58.37 57.64 57.98 58.16 57.89 56.91 55.80 55.70 56.24 55.32 54.41 54.43 54.47 54.69 55.01 53.31 51.36 48.23 51.87 49.13 49.92 48.60 48.61 47.32 47.39 49.51 52.23 56.91 55.37
56.70 56.82 56.64 55.80 55.30 54.06 54.16 53.59 55.34 57.65 57.42 57.80 57.49 57.66 57.93 57.65 57.06 56.32 56.00 57.63 57.10 56.63 57.15 56.30 55.70 54.55 54.31 55.46 51.99 52.66 55.02 54.68 52.02 53.31 55.10 56.46 55.98 54.78 54.90 54.52 54.84 55.40 54.86
58.08 57.97 57.18 55.45 54.51 54.81 54.72 54.35 56.09 58.23 57.95 57.27 57.63 57.63 57.78 57.10 56.33 54.16 51.71 43.44 45.24 47.34 49.15 49.33 53.37 56.06 50.69 44.26 43.53 44.80 43.89 43.17 45.53 55.78 56.38 56.48 56.42 55.72 55.98 56.01 53.75 54.08 53.57
MSLP
998.63 998.21 997.80 997.47 997.41 997.21 997.21 997.11 997.43 998.07 998.71 999.57 1000.29 1001.04 1001.27 1002.04 1002.68 1003.12 1003.69 1004.14 1004.84 1005.34 1006.13 1006.94 1007.55 1008.26 1008.57 1008.82 1009.19 1009.48 1009.86 1010.08 1010.14 1010.44 1010.34 1010.16 1009.92 1009.98 1009.99 1010.09 1010.17 1010.33 1010.36
998.23 997.72 997.30 996.97 996.89 996.69 996.55 996.67 996.80 997.31 997.79 998.55 999.05 999.85 1000.73 1001.85 1002.48 1002.97 1003.42 1003.81 1004.40 1005.39 1005.91 1006.45 1007.25 1007.87 1008.40 1008.69 1008.96 1009.37 1009.79 1009.97 1009.98 1010.26 1010.48 1010.47 1010.24 1009.72 1009.77 1009.86 1010.07 1010.22 1010.37
997.85 997.41 997.01 996.68 996.33 996.49 996.32 996.36 996.42 996.65 997.27 998.40 999.40 1000.20 1000.95 1001.87 1002.66 1003.07 1003.41 1003.86 1004.31 1004.99 1005.50 1006.17 1006.94 1007.58 1008.06 1008.43 1008.84 1009.17 1009.43 1009.70 1009.83 1009.96 1010.25 1010.56 1010.39 1010.09 1009.68 1009.69 1009.83 1010.24 1010.30
997.31 997.01 996.56 996.28 995.80 995.47 995.72 995.80 996.47 996.74 997.31 997.86 998.71 999.67 1000.42 1001.56 1001.97 1002.45 1003.30 1003.95 1004.44 1004.96 1005.61 1006.19 1006.87 1007.40 1007.77 1008.31 1008.49 1008.68 1008.91 1009.31 1009.72 1009.90 1009.97 1010.01 1009.91 1010.10 1010.07 1009.51 1009.78 1010.16 1010.28
996.54 996.55 996.05 995.56 995.11 995.37 995.45 995.60 996.22 996.89 997.50 997.90 998.73 999.75 1000.60 1001.49 1002.04 1002.70 1003.39 1004.56 1004.94 1005.21 1005.76 1006.29 1006.82 1007.42 1007.67 1007.91 1008.22 1008.40 1008.68 1008.98 1009.36 1009.62 1009.77 1009.96 1009.96 1009.86 1010.08 1010.10 1010.03 1010.10 1010.26
996.03 995.84 995.72 995.64 995.68 995.64 995.88 996.36 996.62 997.33 997.90 998.37 999.06 999.71 1000.69 1001.74 1002.60 1003.41 1004.02 1004.65 1005.16 1005.60 1006.03 1006.54 1006.95 1007.07 1007.43 1007.68 1007.87 1008.03 1008.33 1008.66 1009.03 1009.25 1009.32 1009.43 1009.74 1009.87 1010.04 1010.28 1010.36 1010.34 1010.54
996.05 996.18 996.35 996.33 996.13 996.29 996.56 996.96 997.32 997.93 998.35 998.86 999.54 1000.06 1000.86 1001.63 1002.48 1003.39 1004.08 1004.83 1005.41 1005.92 1006.22 1006.41 1006.68 1006.91 1007.08 1007.35 1007.60 1007.81 1008.14 1008.38 1008.74 1008.81 1008.93 1009.06 1009.27 1009.29 1009.40 1009.96 1010.42 1010.45 1010.54
996.18 996.63 996.75 996.69 996.77 997.00 997.37 997.63 997.98 998.42 998.89 999.53 1000.19 1000.63 1001.30 1001.99 1002.62 1003.24 1004.05 1004.66 1005.13 1005.59 1005.82 1006.09 1006.29 1006.58 1006.86 1007.08 1007.30 1007.58 1007.72 1007.95 1008.15 1008.19 1008.39 1008.55 1008.86 1008.99 1008.97 1009.39 1010.00 1010.50 1010.55
996.44 996.79 996.85 997.18 997.41 997.60 998.06 998.05 998.52 999.18 999.69 1000.25 1000.72 1001.30 1001.73 1002.13 1002.81 1003.54 1004.01 1004.60 1005.04 1005.42 1005.67 1005.83 1006.16 1006.47 1006.73 1006.97 1007.20 1007.39 1007.49 1007.60 1007.64 1007.66 1007.85 1008.19 1008.31 1008.59 1008.80 1009.03 1009.23 1009.70 1010.44
996.48 996.95 997.23 997.66 997.97 998.19 998.56 998.71 999.12 999.79 1000.31 1000.75 1001.25 1001.80 1002.17 1002.57 1003.13 1003.69 1004.37 1004.75 1005.14 1005.37 1005.59 1005.92 1006.23 1006.51 1006.66 1006.73 1006.92 1007.14 1007.23 1007.37 1007.28 1007.32 1007.62 1007.89 1007.99 1008.18 1008.72 1008.89 1009.02 1009.28 1009.63
996.48 997.16 997.64 998.00 998.27 998.56 998.98 999.43 999.91 1000.35 1000.93 1001.35 1001.85 1002.26 1002.77 1003.21 1003.58 1004.06 1004.49 1004.88 1005.11 1005.35 1005.66 1005.93 1006.19 1006.42 1006.37 1006.46 1006.66 1006.85 1006.91 1006.94 1007.02 1007.11 1007.30 1007.38 1007.57 1007.91 1008.10 1008.43 1008.77 1009.02 1009.36
996.76 997.41 997.75 998.20 998.62 999.02 999.54 999.97 1000.31 1000.79 1001.31 1001.79 1002.21 1002.74 1003.17 1003.56 1003.96 1004.40 1004.67 1004.87 1005.19 1005.48 1005.71 1005.87 1006.13 1006.14 1006.16 1006.29 1006.45 1006.50 1006.51 1006.65 1006.70 1006.84 1007.04 1007.21 1007.41 1007.68 1007.92 1008.25 1008.60 1009.06 1009.27
997.23 997.81 998.10 998.62 998.91 999.40 999.96 1000.36 1000.68 1001.15 1001.63 1002.02 1002.53 1003.10 1003.46 1003.83 1004.19 1004.54 1004.73 1004.98 1005.30 1005.52 1005.73 1005.80 1005.90 1006.14 1006.27 1006.27 1006.22 1006.30 1006.47 1006.35 1006.37 1006.58 1006.79 1006.98 1007.27 1007.71 1008.07 1008.38 1008.82 1009.22 1009.45
997.26 997.96 998.41 998.89 999.20 999.67 1000.13 1000.66 1001.11 1001.29 1001.71 1002.17 1002.75 1003.24 1003.59 1003.88 1004.22 1004.56 1004.85 1005.09 1005.24 1005.51 1005.67 1005.79 1006.10 1006.34 1006.33 1006.35 1006.21 1006.25 1006.22 1006.37 1006.46 1006.43 1006.40 1006.75 1007.24 1007.64 1008.12 1008.56 1008.92 1009.39 1009.84
997.30 997.97 998.48 998.86 999.41 999.94 1000.29 1000.75 1001.15 1001.48 1001.86 1002.36 1002.85 1003.23 1003.63 1003.88 1004.26 1004.67 1004.92 1005.05 1005.26 1005.51 1005.68 1006.11 1006.38 1006.53 1006.60 1006.73 1006.56 1006.36 1006.36 1006.49 1006.61 1006.57 1006.56 1006.92 1007.41 1007.85 1008.16 1008.50 1008.93 1009.35 1009.97
997.30 997.80 998.32 998.80 999.41 999.85 1000.32 1000.73 1001.17 1001.64 1001.92 1002.42 1002.99 1003.29 1003.65 1004.08 1004.30 1004.63 1004.97 1005.17 1005.42 1005.47 1005.88 1006.38 1006.54 1006.82 1006.98 1006.97 1006.83 1006.48 1006.53 1006.62 1006.91 1006.99 1007.05 1007.46 1007.87 1008.30 1008.64 1008.92 1009.31 1009.55 1009.93
997.02 997.43 998.00 998.60 999.21 999.74 1000.22 1000.71 1001.07 1001.56 1001.98 1002.46 1002.99 1003.30 1003.68 1004.09 1004.28 1004.61 1004.97 1005.27 1005.47 1005.58 1006.23 1006.68 1006.83 1007.10 1007.17 1007.07 1006.93 1006.78 1006.79 1006.90 1007.18 1007.41 1007.65 1008.01 1008.52 1008.86 1009.21 1009.51 1009.86 1010.28 1010.74
996.99 997.18 997.78 998.50 999.15 999.70 1000.25 1000.66 1001.09 1001.55 1001.94 1002.37 1002.96 1003.31 1003.62 1003.95 1004.32 1004.67 1005.08 1005.41 1005.56 1005.91 1006.49 1006.83 1007.06 1007.18 1007.29 1007.20 1007.07 1007.06 1007.24 1007.32 1007.54 1007.75 1008.10 1008.49 1008.97 1009.33 1009.53 1009.88 1010.51 1010.89 1011.53
997.24 997.02 997.55 998.30 999.03 999.57 1000.13 1000.76 1001.29 1001.62 1002.01 1002.51 1002.96 1003.19 1003.55 1003.92 1004.36 1004.82 1005.32 1005.62 1005.85 1006.26 1006.72 1006.94 1007.23 1007.29 1007.34 1007.35 1007.24 1007.26 1007.56 1007.75 1008.10 1008.38 1008.66 1009.00 1009.43 1009.75 1009.91 1010.44 1011.05 1011.67 1012.38
997.03 997.38 997.71 998.48 999.13 999.70 1000.13 1000.83 1001.32 1001.75 1002.03 1002.44 1002.68 1003.06 1003.54 1003.94 1004.43 1004.83 1005.43 1005.69 1005.94 1006.38 1006.89 1007.20 1007.36 1007.47 1007.52 1007.60 1007.60 1007.66 1007.87 1008.15 1008.60 1009.07 1009.37 1009.60 1009.92 1010.23 1010.52 1010.86 1011.43 1012.28 1013.11
996.92 997.39 997.77 998.31 998.92 999.61 1000.10 1000.80 1001.31 1001.65 1001.72 1002.12 1002.59 1003.07 1003.57 1003.95 1004.40 1004.90 1005.41 1005.73 1006.04 1006.56 1007.06 1007.39 1007.63 1007.68 1007.74 1007.97 1007.99 1008.08 1008.27 1008.50 1008.98 1009.49 1009.97 1010.41 1010.52 1010.74 1011.09 1011.39 1011.84 1012.74 1013.53
996.44 996.99 997.58 998.46 998.99 999.44 1000.02 1000.72 1001.21 1001.34 1001.73 1002.17 1002.68 1003.16 1003.70 1004.23 1004.67 1004.99 1005.52 1005.89 1006.21 1006.74 1007.27 1007.60 1007.87 1008.00 1008.05 1008.32 1008.38 1008.49 1008.70 1008.90 1009.20 1009.79 1010.38 1010.98 1011.21 1011.40 1011.73 1012.12 1012.58 1013.16 1013.84
996.15 996.51 997.15 998.32 999.01 999.29 999.75 1000.54 1000.83 1001.33 1001.78 1002.32 1002.90 1003.38 1003.95 1004.35 1004.84 1005.17 1005.75 1006.22 1006.47 1006.87 1007.37 1007.65 1007.93 1008.20 1008.41 1008.57 1008.81 1008.84 1009.01 1009.28 1009.69 1010.20 1010.90 1011.56 1011.85 1012.05 1012.42 1012.79 1013.15 1013.56 1014.12
996.09 996.43 997.30 998.30 999.03 999.43 999.68 999.99 1000.72 1001.22 1001.78 1002.51 1003.11 1003.61 1004.13 1004.64 1005.13 1005.48 1005.84 1006.20 1006.55 1006.95 1007.28 1007.71 1007.97 1008.25 1008.57 1008.83 1009.10 1009.43 1009.59 1009.79 1010.32 1010.82 1011.57 1012.12 1012.45 1012.66 1013.10 1013.68 1013.75 1014.05 1014.39
996.48 996.64 997.06 997.89 998.63 999.21 999.65 1000.05 1000.58 1001.15 1001.88 1002.47 1003.09 1003.68 1004.24 1004.80 1005.33 1005.79 1006.34 1006.31 1006.34 1006.47 1006.99 1007.45 1007.78 1008.19 1008.58 1008.85 1008.91 1009.24 1009.77 1010.14 1010.56 1011.17 1011.81 1012.20 1012.64 1013.16 1013.60 1014.03 1014.22 1014.40 1014.69
997.90 998.03 997.91 998.17 998.72 999.18 999.64 1000.24 1000.65 1001.07 1001.80 1002.60 1003.14 1003.61 1004.24 1004.85 1005.30 1005.91 1006.48 1006.51 1006.50 1006.59 1006.84 1007.11 1007.52 1008.04 1008.23 1008.60 1009.08 1009.44 1009.82 1010.32 1010.73 1011.35 1011.84 1012.28 1012.66 1013.04 1013.41 1013.83 1014.27 1014.56 1014.84
Wind_Speed
13 15 16 14 11 10 9 10 10 9 9 6 7 5 9 7 7 7 10 10 9 11 11 5 5 5 6 5 4 2 3 2 1 1 2 3 4 4 4 3 3 4 5
14 17 15 11 10 11 9 7 9 10 10 8 6 3 8 4 5 5 8 10 9 10 9 7 6 6 4 4 3 4 2 2 3 3 1 2 4 2 4 3 4 5 3
16 15 13 12 11 10 11 9 10 12 10 9 7 5 7 7 4 5 5 5 7 8 8 7 5 5 4 4 4 4 6 3 2 3 3 1 4 1 1 3 3 4 4
12 11 14 13 11 14 6 9 7 8 8 12 8 12 6 8 3 6 4 4 5 6 6 6 6 6 4 5 4 4 3 3 3 1 3 1 2 2 1 1 1 4 4
14 12 14 10 9 6 5 6 9 8 9 8 10 7 8 5 5 6 8 8 4 6 6 6 6 5 4 4 5 4 4 3 3 3 2 2 1 1 1 1 1 2 0
10 8 6 3 3 5 7 7 11 10 10 10 9 11 13 10 9 7 6 6 4 4 5 6 6 5 5 5 4 4 5 4 3 3 3 3 3 3 2 1 1 1 2
7 4 1 4 6 8 8 8 10 9 8 9 9 10 11 11 13 10 8 7 4 3 5 5 5 4 4 4 4 4 5 4 4 6 4 3 3 2 3 4 1 2 1
4 5 5 6 7 9 8 10 10 11 9 9 8 8 9 7 8 8 7 5 4 5 6 5 5 5 5 4 4 3 4 5 5 6 5 4 4 4 3 4 4 2 1
6 6 7 7 7 8 7 11 12 10 10 9 9 8 8 9 8 7 5 4 4 4 6 5 5 4 3 4 4 4 4 5 4 5 5 4 4 4 4 3 3 5 3
8 7 7 7 6 8 8 11 12 12 10 10 9 8 7 7 7 6 6 6 5 5 5 4 2 2 4 5 5 3 4 5 4 3 5 4 3 4 4 4 3 3 4
11 9 8 7 8 8 10 10 12 12 9 9 8 9 7 7 6 6 6 6 5 6 4 4 3 4 5 4 4 5 5 5 4 3 4 6 5 4 4 3 3 3 3
10 10 10 10 10 10 10 10 10 11 8 7 8 7 7 6 6 6 6 6 6 3 4 3 2 5 5 3 4 4 4 5 4 5 5 4 3 3 3 3 4 4 2
11 10 10 10 10 9 9 8 8 9 8 8 8 7 7 6 6 6 6 6 5 3 2 1 1 2 1 0 2 3 3 4 4 4 5 5 6 5 4 5 6 5 6
13 10 9 10 9 9 9 8 6 8 7 8 7 7 6 7 6 6 6 6 4 4 2 4 4 3 2 2 2 1 2 1 1 1 5 6 7 8 7 7 9 8 8
13 11 11 10 9 8 8 7 6 6 6 7 7 6 5 5 6 6 5 5 4 3 5 5 4 4 4 3 3 3 4 3 3 3 5 6 7 9 7 7 10 11 9
13 13 12 12 11 11 9 8 7 6 6 7 6 6 6 6 6 6 5 5 4 4 6 4 4 4 3 6 7 2 4 4 4 4 6 7 10 10 11 11 10 8 11
15 14 14 13 11 11 9 8 7 6 6 8 6 7 6 5 6 6 6 4 5 6 6 5 5 3 2 7 5 2 4 5 6 6 7 6 6 9 10 13 14 11 12
13 13 12 11 10 7 7 6 7 7 8 8 7 6 6 6 5 5 6 6 4 6 5 4 4 3 2 6 4 6 5 6 8 7 8 8 8 9 12 12 11 11 10
9 12 12 12 9 9 8 8 7 7 7 9 8 7 6 6 6 5 6 4 5 4 4 3 4 2 3 8 5 7 5 8 8 7 7 7 10 10 14 14 12 13 11
7 11 11 8 9 8 8 9 8 7 9 9 9 7 6 6 6 7 6 3 3 4 5 4 3 3 3 6 6 7 5 8 7 6 7 10 10 12 11 14 13 12 10
9 8 11 12 12 8 9 8 8 9 9 8 6 6 6 7 6 6 3 5 5 5 5 5 3 3 3 3 5 9 4 5 6 6 6 5 9 13 11 12 11 12 10
12 13 12 9 7 9 10 8 10 8 7 7 7 6 6 5 4 6 4 5 6 6 5 5 4 3 3 5 4 8 7 7 7 7 5 4 9 12 11 8 15 16 12
14 13 13 10 7 9 10 11 8 8 7 7 7 7 6 5 5 6 6 4 4 4 4 4 4 3 2 3 5 7 10 10 6 6 8 10 10 10 10 14 14 11 8
9 9 12 12 9 7 8 11 8 8 10 7 7 6 6 6 4 3 4 4 4 4 4 4 3 3 3 3 3 3 5 10 9 11 8 7 7 8 8 6 4 4 5
5 9 13 12 12 8 7 6 8 9 8 7 6 6 5 6 4 3 2 3 2 4 5 4 4 4 3 3 6 7 5 5 8 9 6 5 5 5 5 4 3 4 4
10 6 6 7 7 7 7 7 7 9 10 8 6 6 6 5 4 4 3 6 3 4 6 8 6 2 5 10 10 9 11 15 13 4 5 5 5 6 6 7 4 3 4
Wind_Direction
265 265 266 268 265 255 237 205 168 175 156 155 160 159 190 166 167 166 167 165 167 165 173 172 148 169 187 192 182 165 240 297 215 219 287 276 248 235 230 224 219 216 207
271 270 267 264 260 247 243 203 201 166 181 180 186 140 159 146 140 146 159 172 165 163 165 154 168 183 163 178 177 168 180 227 184 167 120 320 319 252 214 186 200 218 199
256 266 265 256 249 238 234 206 198 181 170 140 115 96 97 110 106 144 147 152 146 150 149 156 167 164 163 185 194 191 187 205 201 210 156 101 239 298 316 209 183 205 195
248 252 263 263 235 240 220 215 189 154 142 147 133 152 147 155 148 153 107 120 137 143 142 154 150 163 163 192 199 189 184 150 206 223 206 235 155 175 10 253 262 188 192
248 254 254 264 283 229 198 144 129 122 133 123 130 132 108 102 109 112 111 141 136 132 147 142 146 174 175 190 185 174 186 181 169 184 149 194 346 90 113 285 346 102 49
253 271 323 17 67 89 97 109 115 112 119 126 130 131 125 123 117 118 119 127 123 136 130 148 172 157 172 185 194 194 199 196 196 197 193 173 164 191 161 228 276 101 21
272 266 167 107 92 83 90 100 113 104 105 108 109 121 124 130 131 142 141 141 135 137 162 160 156 170 187 193 187 198 203 194 197 196 203 196 191 175 159 154 188 127 133
193 158 130 94 87 89 89 104 104 97 93 95 97 97 110 122 130 137 142 143 148 151 162 161 176 192 186 201 196 216 216 204 212 204 196 195 198 195 179 163 145 97 95
161 135 106 99 103 97 96 107 100 92 93 99 100 98 109 115 128 125 120 128 124 146 158 165 171 182 210 216 212 220 230 221 220 214 201 197 209 194 195 185 159 144 158
136 123 115 108 95 96 98 101 104 103 103 102 107 111 109 109 115 119 136 143 143 149 155 153 155 205 223 228 211 225 244 217 226 203 192 204 210 211 179 187 184 184 134
141 131 123 109 111 105 110 110 108 109 105 109 113 113 113 119 124 134 142 149 143 153 163 174 196 229 243 245 232 224 239 222 219 198 204 213 194 192 186 164 173 160 121
132 135 128 126 123 115 115 121 119 118 122 118 113 112 118 124 130 137 148 147 158 158 168 202 217 262 240 221 232 233 234 232 228 213 200 195 155 134 137 147 130 112 163
127 132 127 134 128 120 122 128 130 130 128 124 120 127 136 138 140 147 144 153 144 157 200 328 113 144 185 178 286 281 190 203 225 202 192 166 147 142 137 119 114 110 107
137 140 134 136 133 132 134 143 138 139 138 138 135 145 162 149 156 156 152 155 153 152 77 99 104 92 23 356 319 216 158 166 45 182 171 147 151 146 128 118 117 124 116
144 152 147 141 141 140 143 148 150 146 141 131 154 163 140 136 143 151 164 134 154 133 131 110 111 75 52 24 7 100 104 102 74 88 111 116 127 127 132 133 135 133 129
155 154 153 151 156 158 159 162 162 149 148 147 142 155 141 150 158 153 154 156 142 129 116 128 114 77 59 3 354 57 89 74 99 90 87 103 106 96 102 105 100 124 140
161 160 161 162 163 170 163 171 169 141 151 135 150 154 148 163 156 168 165 150 158 120 119 136 115 102 60 352 333 84 82 86 93 98 103 96 99 110 111 100 85 77 92
173 165 161 164 168 167 157 157 139 148 156 142 153 155 156 165 168 149 145 115 131 125 133 150 126 113 40 353 99 104 87 79 85 90 105 117 118 123 122 116 89 94 75
194 171 169 168 159 168 153 147 142 145 144 150 163 166 163 164 150 141 134 130 126 128 141 153 134 113 48 7 106 95 95 98 94 94 98 118 126 124 115 112 98 92 84
186 180 168 158 159 175 143 143 149 151 156 164 173 166 162 158 160 160 145 137 132 140 131 126 120 133 89 28 107 99 105 111 104 93 91 95 130 121 119 118 113 101 106
172 163 160 168 177 153 147 152 151 171 172 164 154 155 168 163 159 145 137 134 128 125 129 121 123 112 55 60 123 112 97 110 110 109 112 122 128 122 112 115 124 125 123
156 163 156 165 163 157 152 153 173 173 154 150 151 151 148 140 146 142 115 122 133 130 138 130 109 95 70 48 113 124 115 112 121 124 128 123 126 116 102 98 120 122 120
165 161 159 146 164 162 161 163 189 152 143 144 142 144 141 141 148 135 126 115 127 134 144 144 145 136 83 77 111 129 124 105 105 119 126 116 98 92 83 122 125 126 126
149 147 144 157 164 168 160 177 148 153 150 148 140 141 141 140 149 128 132 133 141 140 142 147 154 140 122 115 117 123 104 94 89 101 110 120 96 86 103 110 119 104 126
100 144 159 165 171 162 168 151 147 144 149 146 142 142 134 147 151 109 130 165 184 166 162 172 160 155 165 185 164 148 142 128 118 115 121 131 125 129 135 131 109 124 132
43 43 91 121 149 156 161 143 152 147 144 140 149 156 153 154 152 155 132 62 64 157 179 161 145 151 140 143 154 150 124 126 132 110 142 141 143 150 153 162 149 142 152